FW5335 Weather Reports


time (UTC)temp
C
wind
direction
speed
KPH
gust
KPH
rain 1hr
cm
rain 24hr
cm
rain mn
cm
humidity
%
barometer
mb
20260905180520 18 45 3.2 6.4 0.00 0.00 0.00 64 1026.0
20260905175517 18 68 4.8 9.7 0.00 0.00 0.00 64 1025.9
20260905174610 18 23 4.8 12.9 0.00 0.00 0.00 62 1025.9
20260905173521 19 68 6.4 12.9 0.00 0.00 0.00 61 1026.0
20260905172518 19 68 4.8 12.9 0.00 0.00 0.00 60 1026.0
20260905171540 20 68 6.4 14.5 0.00 0.00 0.00 59 1025.9
20260905170520 20 68 9.7 16.1 0.00 0.00 0.00 58 1025.7
20260905165517 20 45 4.8 12.9 0.00 0.00 0.00 57 1025.8
20260905164540 20 23 4.8 11.3 0.00 0.00 0.00 57 1025.5
20260905163518 21 0 6.4 14.5 0.00 0.00 0.00 56 1025.5
20260905162521 21 23 8.0 16.1 0.00 0.00 0.00 54 1025.6
20260905161522 22 338 4.8 11.3 0.00 0.00 0.00 52 1025.4
20260905160522 22 45 6.4 14.5 0.00 0.00 0.00 51 1025.4
20260905155518 22 225 3.2 9.7 0.00 0.00 0.00 49 1025.4
20260905154519 22 315 6.4 14.5 0.00 0.00 0.00 50 1025.3
20260905153522 23 248 4.8 14.5 0.00 0.00 0.00 48 1025.7
20260905152521 23 0 6.4 12.9 0.00 0.00 0.00 47 1025.7
20260905151521 23 23 4.8 8.0 0.00 0.00 0.00 49 1025.9
20260905150519 24 225 3.2 8.0 0.00 0.00 0.00 45 1025.8
20260905145537 24 225 6.4 19.3 0.00 0.00 0.00 47 1025.9
20260905144519 23 248 3.2 11.3 0.00 0.00 0.00 48 1025.9
20260905143527 23 225 4.8 11.3 0.00 0.00 0.00 45 1026.0
20260905142518 23 248 6.4 14.5 0.00 0.00 0.00 45 1026.1
20260905141518 23 270 6.4 12.9 0.00 0.00 0.00 45 1026.2
20260905140518 23 225 11.3 19.3 0.00 0.00 0.00 45 1026.2
20260905135516 23 248 6.4 19.3 0.00 0.00 0.00 44 1026.6
20260905134521 23 248 9.7 17.7 0.00 0.00 0.00 45 1026.5
20260905133522 23 293 6.4 17.7 0.00 0.00 0.00 52 1026.6
20260905131541 23 270 9.7 17.7 0.00 0.00 0.00 49 1026.3
20260905130519 23 45 4.8 11.3 0.00 0.00 0.00 53 1026.1
20260905125520 22 90 4.8 8.0 0.00 0.00 0.00 56 1026.2
20260905124518 21 0 4.8 11.3 0.00 0.00 0.00 53 1026.2
20260905123537 22 0 6.4 12.9 0.00 0.00 0.00 54 1026.2
20260905122517 21 0 8.0 20.9 0.00 0.00 0.00 53 1026.2
20260905121518 21 225 6.4 12.9 0.00 0.00 0.00 54 1026.0
20260905120518 20 338 4.8 12.9 0.00 0.00 0.00 55 1026.3
20260905115518 20 293 3.2 8.0 0.00 0.00 0.00 57 1026.3
20260905114517 20 23 3.2 6.4 0.00 0.00 0.00 58 1026.4
20260905113517 20 23 3.2 8.0 0.00 0.00 0.00 59 1026.6
20260905112537 20 293 4.8 12.9 0.00 0.00 0.00 59 1026.3
20260905111537 20 338 6.4 16.1 0.00 0.00 0.00 57 1026.2
20260905110516 20 68 4.8 8.0 0.00 0.00 0.00 56 1026.3
20260905105516 20 23 6.4 12.9 0.00 0.00 0.00 58 1026.4
20260905104518 21 315 6.4 17.7 0.00 0.00 0.00 55 1026.6
20260905103516 21 270 6.4 17.7 0.00 0.00 0.00 55 1026.6
20260905102516 20 248 8.0 17.7 0.00 0.00 0.00 56 1026.6
20260905101518 19 248 9.7 16.1 0.00 0.00 0.00 63 1026.4
20260905100519 18 270 4.8 11.3 0.00 0.00 0.00 65 1026.3
20260905095518 18 225 6.4 11.3 0.00 0.00 0.00 67 1026.4
20260905094516 17 270 6.4 14.5 0.00 0.00 0.00 67 1026.1
20260905093516 17 270 4.8 11.3 0.00 0.00 0.00 66 1025.9
20260905092518 17 248 6.4 14.5 0.00 0.00 0.00 68 1025.8
20260905091525 17 248 3.2 8.0 0.00 0.00 0.00 70 1026.0
20260905090518 17 248 3.2 9.7 0.00 0.00 0.00 71 1025.8
20260905085521 17 225 4.8 9.7 0.00 0.00 0.00 72 1026.0
20260905084518 16 270 4.8 11.3 0.00 0.00 0.00 73 1025.7
20260905083518 16 270 4.8 11.3 0.00 0.00 0.00 73 1025.6
20260905082540 16 270 6.4 11.3 0.00 0.00 0.00 74 1025.4
20260905081520 16 270 3.2 8.0 0.00 0.00 0.00 74 1025.1
20260905080520 15 270 4.8 11.3 0.00 0.00 0.00 74 1025.2
20260905075519 15 270 3.2 11.3 0.00 0.00 0.00 75 1025.2
20260905074541 15 293 1.6 4.8 0.00 0.00 0.00 77 1024.9
20260905073519 15 0.0 3.2 0.00 0.00 0.00 79 1024.9
20260905072520 14 270 1.6 4.8 0.00 0.00 0.00 81 1024.8
20260905071518 13 248 3.2 8.0 0.00 0.00 0.00 81 1024.8
20260905070521 13 225 1.6 4.8 0.00 0.00 0.00 82 1024.6
20260905065525 13 248 3.2 6.4 0.00 0.00 0.00 82 1024.7
20260905064519 12 248 4.8 11.3 0.00 0.00 0.00 84 1024.6
20260905063538 12 248 3.2 6.4 0.00 0.00 0.00 84 1024.5
20260905062521 12 0 1.6 6.4 0.00 0.00 0.00 84 1024.4
20260905061518 12 225 1.6 4.8 0.00 0.00 0.00 83 1024.4
20260905060519 12 225 3.2 8.0 0.00 0.00 0.00 82 1024.3
20260905055518 12 248 3.2 6.4 0.00 0.00 0.00 82 1024.2
20260905054522 12 248 1.6 4.8 0.00 0.08 0.00 82 1024.1
20260905053520 12 225 1.6 6.4 0.00 0.08 0.00 83 1023.9
20260905052523 12 248 1.6 4.8 0.00 0.08 0.00 84 1023.8
20260905051518 12 248 4.8 9.7 0.00 0.08 0.00 85 1023.7
20260905050518 12 225 6.4 11.3 0.00 0.08 0.00 86 1023.7
20260905045539 12 225 8.0 16.1 0.00 0.08 0.00 88 1023.4
20260905044518 12 225 6.4 12.9 0.00 0.08 0.00 89 1023.4
20260905043520 11 225 8.0 14.5 0.00 0.08 0.00 89 1023.4
20260905042519 11 225 4.8 9.7 0.00 0.08 0.00 89 1023.2
20260905041540 11 225 4.8 12.9 0.00 0.08 0.00 89 1023.3
20260905040519 11 225 6.4 14.5 0.00 0.08 0.00 89 1023.0
20260905035525 11 248 4.8 11.3 0.00 0.08 0.00 90 1023.0
20260905034519 11 225 4.8 11.3 0.00 0.08 0.00 90 1022.9
20260905033519 11 248 3.2 12.9 0.00 0.08 0.00 90 1022.8
20260905032519 11 248 3.2 8.0 0.00 0.08 0.00 90 1022.6
20260905031518 11 248 3.2 9.7 0.00 0.08 0.00 88 1022.7
20260905030519 11 0.0 1.6 0.00 0.08 0.00 87 1022.6
20260905025517 11 0 1.6 3.2 0.00 0.08 0.00 87 1022.5
20260905024519 11 0 3.2 4.8 0.00 0.08 0.00 87 1022.4
20260905023601 11 23 1.6 3.2 0.00 0.08 0.00 87 1022.5
20260905022520 12 248 1.6 3.2 0.00 0.08 0.00 87 1022.4
20260905021519 12 248 3.2 11.3 0.00 0.08 0.00 87 1022.2
20260905020517 12 248 3.2 8.0 0.00 0.08 0.00 87 1022.2
20260905015520 12 225 4.8 9.7 0.00 0.08 0.00 87 1022.2
20260905014522 12 225 4.8 9.7 0.00 0.08 0.00 87 1022.2
20260905013519 12 248 4.8 11.3 0.00 0.08 0.00 87 1022.3
20260905012517 12 248 4.8 8.0 0.00 0.08 0.00 87 1022.3
20260905011519 12 225 3.2 6.4 0.00 0.08 0.00 86 1022.2
20260905010539 12 225 4.8 8.0 0.00 0.08 0.00 86 1022.1
20260905005519 12 225 3.2 12.9 0.00 0.08 0.00 86 1022.1
20260905004538 12 225 4.8 8.0 0.00 0.08 0.00 85 1022.2
20260905003517 12 248 4.8 8.0 0.00 0.08 0.00 85 1022.1
20260905002519 12 225 4.8 8.0 0.00 0.08 0.00 85 1022.1
20260905001519 12 225 4.8 11.3 0.00 0.08 0.00 85 1022.0
20260905000517 12 225 6.4 12.9 0.00 0.08 0.00 85 1021.8
20260904235518 12 225 6.4 14.5 0.00 0.08 0.00 85 1021.7
20260904234518 12 225 6.4 11.3 0.00 0.08 0.00 85 1021.7
20260904233519 12 225 6.4 11.3 0.00 0.08 0.00 85 1021.6
20260904232537 12 225 6.4 11.3 0.00 0.08 0.00 84 1021.6
20260904231528 12 225 4.8 8.0 0.00 0.08 0.00 84 1021.7
20260904230523 12 225 4.8 9.7 0.00 0.08 0.00 83 1021.7
20260904225519 12 225 3.2 8.0 0.00 0.08 0.08 83 1021.6
20260904224517 13 225 4.8 8.0 0.00 0.08 0.08 83 1021.6
20260904223519 13 225 8.0 14.5 0.00 0.08 0.08 83 1021.3
20260904222541 13 225 9.7 17.7 0.00 0.08 0.08 83 1021.5
20260904221517 13 225 8.0 14.5 0.00 0.08 0.08 83 1021.5
20260904220540 13 225 8.0 12.9 0.00 0.08 0.08 83 1021.5
20260904215519 13 225 6.4 14.5 0.00 0.08 0.08 83 1021.4
20260904214523 13 225 6.4 12.9 0.00 0.08 0.08 83 1021.2
20260904213524 13 225 6.4 9.7 0.00 0.08 0.08 83 1020.9
20260904212519 13 225 4.8 9.7 0.00 0.08 0.08 83 1020.9
20260904211519 13 225 6.4 11.3 0.00 0.08 0.08 83 1021.0
20260904210519 13 225 6.4 9.7 0.00 0.08 0.08 82 1021.0
20260904205520 13 225 4.8 9.7 0.00 0.08 0.08 82 1021.0
20260904204517 13 225 6.4 11.3 0.00 0.08 0.08 82 1020.9
20260904203542 13 225 6.4 11.3 0.00 0.08 0.08 81 1020.9
20260904202559 14 225 6.4 11.3 0.00 0.08 0.08 81 1020.9
20260904201518 14 225 4.8 8.0 0.00 0.08 0.08 80 1020.9
20260904200618 14 225 4.8 9.7 0.00 0.08 0.08 79 1020.6
20260904195520 15 225 4.8 9.7 0.00 0.08 0.08 78 1020.6
20260904194518 15 225 4.8 9.7 0.00 0.08 0.08 77 1020.5
20260904193522 15 225 6.4 11.3 0.00 0.08 0.08 76 1020.3
20260904192620 16 225 6.4 9.7 0.00 0.08 0.08 75 1020.4
20260904191520 16 248 4.8 11.3 0.00 0.08 0.08 74 1020.3
20260904190520 16 248 8.0 17.7 0.00 0.08 0.08 73 1020.2
20260904185522 16 248 6.4 16.1 0.00 0.08 0.08 72 1020.2
20260904184520 16 248 9.7 19.3 0.00 0.08 0.08 72 1020.1
20260904183519 17 270 8.0 22.5 0.00 0.08 0.08 71 1020.0
20260904182520 17 248 9.7 19.3 0.00 0.08 0.08 72 1019.8
20260904181524 17 248 11.3 20.9 0.00 0.08 0.08 72 1019.6